Weather History for Fort Drum, NY

Change the Weather History Date:

Thursday, October 20, 2011

  Actual Average Record
Temperature  
Mean Temperature 54 °F -  
Max Temperature 63 °F 51 °F 68 °F (2000)
Min Temperature 46 °F 35 °F 26 °F (2003)
Degree Days  
Heating Degree Days 10    
Growing Degree Days 4 (Base 50)    
Moisture  
Dew Point 52 °F    
Average Humidity 91    
Maximum Humidity 100    
Minimum Humidity 65    
Precipitation  
Precipitation 0.47 in - - ()
Sea Level Pressure  
Sea Level Pressure 29.33 in    
Wind  
Wind Speed 11 mph (SSW)    
Max Wind Speed 21 mph    
Max Gust Speed 28 mph    
Visibility 8 miles    
Events Rain , Thunderstorm    
Averages and records for this station are not official NWS values.
T = Trace of Precipitation, MM = Missing Value Source: NWS Daily Summary

Daily Weather History Graph

Daily Weather History Graph

Search for Another Location

Airport:

Trip Planner

Search our weather history database for the weather conditions in past years. The results will help you decide how hot, cold, wet, or windy it might be!

Date:

Astronomy

Oct. 20, 2011 Rise Set
Actual Time 7:23 AM EDT 6:11 PM EDT
Civil Twilight 6:54 AM EDT 6:40 PM EDT
Nautical Twilight 6:20 AM EDT 7:14 PM EDT
Astronomical Twilight 5:47 AM EDT 7:47 PM EDT
Moon No Moon Rise 2:32 PM EDT (10/20)
Length of Visible Light 11h 46m
Length of Day
10h 47m
Last Quarter, 44% of the Moon is Illuminated
Oct 20
Last Quarter
Oct 26
New
Nov 2
First Quarter
Nov 10
Full
Nov 18
Last Quarter

Hourly Weather History & Observations

Time (EDT) Temp. Dew Point Humidity Pressure Visibility Wind Dir Wind Speed Gust Speed Precip Events Conditions
12:03 AM 50.0 °F 50.0 °F 100% 29.49 in 10.0 mi ENE 16.1 mph - N/A Rain , Thunderstorm Light Thunderstorms and Rain
12:18 AM 51.8 °F 50.0 °F 94% 29.49 in 9.0 mi ENE 13.8 mph - N/A Rain Light Rain
12:38 AM 50.0 °F 50.0 °F 100% 29.47 in 5.0 mi ENE 15.0 mph - N/A Rain Heavy Rain
12:43 AM 50.0 °F 50.0 °F 100% 29.45 in 5.0 mi NE 16.1 mph - N/A Rain Rain
12:55 AM 50.7 °F 50.7 °F 100% 29.43 in 7.0 mi ENE 15.0 mph - 0.10 in Rain Light Rain
1:10 AM 50.0 °F 50.0 °F 100% 29.43 in 7.0 mi ENE 15.0 mph - N/A Rain Light Rain
1:20 AM 51.8 °F 51.8 °F 100% 29.42 in 7.0 mi ENE 15.0 mph - N/A   Light Drizzle
1:28 AM 51.8 °F 51.8 °F 100% 29.40 in 10.0 mi ENE 16.1 mph - N/A   Overcast
1:33 AM 51.8 °F 51.8 °F 100% 29.39 in 10.0 mi ENE 17.3 mph 24.2 mph N/A   Overcast
1:55 AM 51.4 °F 51.4 °F 100% 29.37 in 10.0 mi ENE 19.6 mph 26.5 mph 0.02 in   Mostly Cloudy
2:37 AM 51.8 °F 51.8 °F 100% 29.35 in 10.0 mi ENE 12.7 mph - N/A Rain Light Rain
2:40 AM 51.8 °F 51.8 °F 100% 29.35 in 10.0 mi ENE 11.5 mph - N/A Rain Light Rain
2:55 AM 52.0 °F 52.0 °F 100% 29.34 in 7.0 mi NE 9.2 mph - 0.02 in Rain Light Rain
2:57 AM 51.8 °F 51.8 °F 100% 29.34 in 7.0 mi ENE 10.4 mph - N/A Rain Light Rain
3:06 AM 51.8 °F 51.8 °F 100% 29.33 in 9.0 mi ENE 10.4 mph - N/A Rain Light Rain
3:19 AM 51.8 °F 51.8 °F 100% 29.32 in 10.0 mi ENE 11.5 mph - N/A Rain Light Rain
3:26 AM 51.8 °F 51.8 °F 100% 29.33 in 10.0 mi ENE 10.4 mph - N/A   Light Drizzle
3:28 AM 51.8 °F 51.8 °F 100% 29.33 in 10.0 mi ENE 9.2 mph - N/A   Overcast
3:35 AM 51.8 °F 51.8 °F 100% 29.32 in 10.0 mi ENE 10.4 mph - N/A   Overcast
3:42 AM 51.8 °F 51.8 °F 100% 29.32 in 10.0 mi ENE 10.4 mph - N/A   Light Drizzle
3:44 AM 51.8 °F 51.8 °F 100% 29.31 in 10.0 mi ENE 9.2 mph - N/A   Light Drizzle
3:52 AM 51.8 °F 51.8 °F 100% 29.32 in 10.0 mi ENE 8.1 mph - N/A   Mostly Cloudy
3:55 AM 52.3 °F 52.3 °F 100% 29.31 in 10.0 mi ENE 8.1 mph - 0.04 in   Mostly Cloudy
4:03 AM 51.8 °F 51.8 °F 100% 29.31 in 10.0 mi ENE 10.4 mph - N/A   Mostly Cloudy
4:55 AM 53.2 °F 53.2 °F 100% 29.27 in 10.0 mi East 13.8 mph - N/A   Mostly Cloudy
5:00 AM 53.6 °F 53.6 °F 100% 29.27 in 10.0 mi East 13.8 mph - N/A   Mostly Cloudy
5:55 AM 53.6 °F 53.6 °F 100% 29.24 in 10.0 mi NNE 8.1 mph - N/A   Mostly Cloudy
5:57 AM 53.6 °F 53.6 °F 100% 29.24 in 10.0 mi Variable 5.8 mph - N/A   Scattered Clouds
5:58 AM 53.6 °F 53.6 °F 100% 29.24 in 10.0 mi NNW 5.8 mph - N/A   Mostly Cloudy
6:55 AM 52.5 °F 52.5 °F 100% 29.22 in 10.0 mi NE 5.8 mph - N/A   Overcast
7:18 AM 55.4 °F 55.4 °F 100% 29.22 in 10.0 mi Calm Calm - N/A   Mostly Cloudy
7:23 AM 55.4 °F 55.4 °F 100% 29.22 in 10.0 mi East 4.6 mph - N/A   Mostly Cloudy
7:29 AM 55.4 °F 55.4 °F 100% 29.21 in 10.0 mi ESE 5.8 mph - N/A Rain Light Rain
7:31 AM 57.2 °F 57.2 °F 100% 29.21 in 10.0 mi ESE 6.9 mph - N/A Rain Light Rain
7:38 AM 57.2 °F 57.2 °F 100% 29.21 in 6.0 mi SE 8.1 mph - N/A Rain Light Rain
7:50 AM 59.0 °F 59.0 °F 100% 29.22 in 7.0 mi SSE 5.8 mph - N/A Rain Light Rain
7:52 AM 59.0 °F 59.0 °F 100% 29.22 in 7.0 mi South 6.9 mph - N/A Rain Light Rain
7:54 AM 59.0 °F 59.0 °F 100% 29.22 in 8.0 mi South 5.8 mph - N/A Rain Light Rain
7:55 AM 58.6 °F 58.5 °F 99% 29.23 in 8.0 mi SSE 5.8 mph - 0.03 in Rain Light Rain
8:10 AM 59.0 °F 59.0 °F 100% 29.22 in 4.0 mi SE 4.6 mph - N/A Rain Light Rain
8:12 AM 59.0 °F 59.0 °F 100% 29.22 in 3.0 mi SSE 4.6 mph - N/A Rain Rain
8:15 AM 59.0 °F 59.0 °F 100% 29.23 in 2.5 mi SSE 4.6 mph - N/A Rain Rain
8:16 AM 59.0 °F 59.0 °F 100% 29.23 in 2.0 mi SSE 4.6 mph - N/A Rain Rain
8:18 AM 57.2 °F 57.2 °F 100% 29.24 in 1.8 mi Calm Calm - N/A Rain Heavy Rain
8:19 AM 57.2 °F 57.2 °F 100% 29.23 in 1.8 mi Calm Calm - N/A Rain Heavy Rain
8:22 AM 57.2 °F 57.2 °F 100% 29.24 in 2.0 mi SSW 3.5 mph - N/A Rain Heavy Rain
8:26 AM 55.4 °F 55.4 °F 100% 29.24 in 2.5 mi SW 3.5 mph - N/A Rain Heavy Rain
8:29 AM 55.4 °F 55.4 °F 100% 29.25 in 3.0 mi Calm Calm - N/A Rain Rain
8:42 AM 53.6 °F 53.6 °F 100% 29.26 in 4.0 mi SSE 3.5 mph - N/A Rain Light Rain
8:45 AM 53.6 °F 53.6 °F 100% 29.26 in 3.0 mi South 10.4 mph - N/A Rain Rain
8:46 AM 53.6 °F 53.6 °F 100% 29.26 in 2.5 mi South 11.5 mph - N/A Rain Rain
8:48 AM 53.6 °F 53.6 °F 100% 29.26 in 3.0 mi South 10.4 mph - N/A Rain Heavy Rain
8:54 AM 53.6 °F 53.6 °F 100% 29.26 in 4.0 mi South 5.8 mph - N/A Rain Rain
8:55 AM 54.1 °F 54.1 °F 100% 29.26 in 5.0 mi South 5.8 mph - 0.22 in Rain Rain
8:59 AM 53.6 °F 53.6 °F 100% 29.26 in 7.0 mi South 5.8 mph - N/A Rain Rain
9:19 AM 53.6 °F 53.6 °F 100% 29.27 in 10.0 mi South 11.5 mph 17.3 mph N/A   Scattered Clouds
9:31 AM 59.0 °F 59.0 °F 100% 29.26 in 10.0 mi South 13.8 mph - N/A   Partly Cloudy
9:55 AM 59.7 °F 58.3 °F 95% 29.28 in 10.0 mi SSW 9.2 mph - 0.01 in   Mostly Cloudy
10:01 AM 60.8 °F 57.2 °F 88% 29.28 in 10.0 mi SW 10.4 mph - N/A   Mostly Cloudy
10:19 AM 60.8 °F 57.2 °F 88% 29.29 in 10.0 mi SW 8.1 mph - N/A   Overcast
10:55 AM 61.2 °F 53.1 °F 75% 29.30 in 10.0 mi WSW 11.5 mph - N/A   Mostly Cloudy
11:55 AM 61.7 °F 52.9 °F 73% 29.30 in 10.0 mi SW 10.4 mph 17.3 mph N/A   Mostly Cloudy
12:05 PM 60.8 °F 51.8 °F 72% 29.31 in 10.0 mi WSW 5.8 mph - N/A   Mostly Cloudy
12:06 PM 60.8 °F 51.8 °F 72% 29.30 in 10.0 mi WSW 5.8 mph - N/A   Mostly Cloudy
12:24 PM 62.6 °F 53.6 °F 72% 29.30 in 10.0 mi WSW 9.2 mph - N/A   Mostly Cloudy
12:37 PM 60.8 °F 51.8 °F 72% 29.30 in 10.0 mi WSW 9.2 mph - N/A   Mostly Cloudy
12:48 PM 60.8 °F 51.8 °F 72% 29.30 in 10.0 mi SW 8.1 mph - N/A   Light Drizzle
12:55 PM 60.4 °F 52.3 °F 75% 29.30 in 10.0 mi SW 9.2 mph - 0.00 in   Light Drizzle
1:03 PM 60.8 °F 51.8 °F 72% 29.30 in 10.0 mi SW 13.8 mph - N/A   Mostly Cloudy
1:16 PM 60.8 °F 51.8 °F 72% 29.30 in 10.0 mi SW 9.2 mph - N/A   Light Drizzle
1:27 PM 60.8 °F 51.8 °F 72% 29.30 in 10.0 mi SW 9.2 mph - N/A   Mostly Cloudy
1:55 PM 63.3 °F 52.2 °F 67% 29.30 in 10.0 mi WSW 18.4 mph 26.5 mph 0.00 in   Mostly Cloudy
2:04 PM 59.0 °F 51.8 °F 77% 29.31 in 6.0 mi WSW 11.5 mph 26.5 mph N/A Rain Rain
2:08 PM 57.2 °F 51.8 °F 82% 29.31 in 5.0 mi WSW 11.5 mph 24.2 mph N/A Rain Rain
2:37 PM 57.2 °F 53.6 °F 88% 29.32 in 10.0 mi WSW 9.2 mph - N/A   Mostly Cloudy
2:42 PM 57.2 °F 53.6 °F 88% 29.32 in 10.0 mi West 10.4 mph - N/A   Mostly Cloudy
2:55 PM 54.5 °F 53.1 °F 95% 29.33 in 10.0 mi West 10.4 mph - 0.02 in   Mostly Cloudy
3:06 PM 53.6 °F 51.8 °F 94% 29.33 in 10.0 mi West 13.8 mph 20.7 mph N/A   Light Drizzle
3:18 PM 53.6 °F 51.8 °F 94% 29.34 in 10.0 mi West 10.4 mph - N/A Rain Light Rain
3:29 PM 53.6 °F 51.8 °F 94% 29.34 in 10.0 mi West 8.1 mph - N/A Rain Light Rain
3:37 PM 53.6 °F 51.8 °F 94% 29.35 in 10.0 mi West 6.9 mph - N/A Rain Light Rain
3:38 PM 53.6 °F 51.8 °F 94% 29.35 in 10.0 mi West 6.9 mph - N/A Rain Light Rain
3:41 PM 51.8 °F 51.8 °F 100% 29.36 in 10.0 mi West 9.2 mph - N/A   Light Drizzle
3:47 PM 51.8 °F 51.8 °F 100% 29.36 in 10.0 mi Variable 6.9 mph - N/A   Overcast
3:53 PM 51.8 °F 51.8 °F 100% 29.36 in 10.0 mi West 5.8 mph - N/A   Light Drizzle
3:55 PM 52.5 °F 51.1 °F 95% 29.37 in 10.0 mi West 8.1 mph - 0.01 in   Light Drizzle
3:59 PM 51.8 °F 51.8 °F 100% 29.37 in 9.0 mi West 6.9 mph - N/A Rain Light Rain
4:01 PM 51.8 °F 51.8 °F 100% 29.37 in 9.0 mi West 8.1 mph - N/A Rain Light Rain
4:02 PM 51.8 °F 51.8 °F 100% 29.37 in 9.0 mi West 8.1 mph - N/A Rain Light Rain
4:06 PM 51.8 °F 51.8 °F 100% 29.37 in 9.0 mi West 6.9 mph - N/A Rain Rain
4:16 PM 51.8 °F 51.8 °F 100% 29.37 in 10.0 mi Variable 5.8 mph - N/A   Overcast
4:26 PM 53.6 °F 50.0 °F 88% 29.37 in 10.0 mi West 3.5 mph - N/A   Overcast
4:55 PM 53.8 °F 48.4 °F 82% 29.38 in 10.0 mi SW 5.8 mph - 0.00 in   Mostly Cloudy
5:55 PM 53.8 °F 42.4 °F 65% 29.41 in 10.0 mi SW 11.5 mph - 0.00 in   Light Drizzle
6:08 PM 53.6 °F 42.8 °F 67% 29.42 in 10.0 mi SW 20.7 mph 27.6 mph N/A   Mostly Cloudy
6:09 PM 53.6 °F 42.8 °F 67% 29.42 in 10.0 mi SW 20.7 mph 27.6 mph N/A   Light Drizzle
6:32 PM 51.8 °F 42.8 °F 71% 29.43 in 10.0 mi SW 12.7 mph - N/A   Mostly Cloudy
6:50 PM 51.8 °F 42.8 °F 71% 29.44 in 10.0 mi SSW 10.4 mph - N/A   Light Drizzle
6:55 PM 51.4 °F 43.5 °F 74% 29.44 in 10.0 mi SSW 10.4 mph - 0.00 in   Light Drizzle
7:00 PM 51.8 °F 44.6 °F 76% 29.45 in 10.0 mi SSW 12.7 mph 19.6 mph N/A   Mostly Cloudy
7:19 PM 51.8 °F 42.8 °F 71% 29.46 in 10.0 mi SW 17.3 mph 23.0 mph N/A   Light Drizzle
7:41 PM 50.0 °F 42.8 °F 76% 29.47 in 10.0 mi SW 13.8 mph 21.9 mph N/A   Clear
7:55 PM 50.4 °F 41.9 °F 73% 29.47 in 10.0 mi SW 15.0 mph - 0.00 in   Mostly Cloudy
8:55 PM 48.7 °F 40.3 °F 73% 29.49 in 10.0 mi SW 12.7 mph - N/A   Mostly Cloudy
9:55 PM 46.9 °F 39.9 °F 77% 29.51 in 10.0 mi SSW 10.4 mph - N/A   Scattered Clouds
10:55 PM 48.7 °F 39.9 °F 72% 29.52 in 10.0 mi SW 12.7 mph - N/A   Overcast
11:41 PM 48.2 °F 39.2 °F 71% 29.52 in 10.0 mi SSW 12.7 mph 20.7 mph N/A Rain Light Rain
11:53 PM 48.2 °F 41.0 °F 76% 29.52 in 10.0 mi SSW 12.7 mph - N/A   Overcast
11:55 PM 48.2 °F 40.6 °F 75% 29.53 in 10.0 mi SSW 9.2 mph - 0.00 in   Overcast